Simultaneous Nadir Overpasses (SNOs) Predictions

Prediction of SNOs between GOES-14 and NOAA-20 Satellite Orbit:

Table of predicted SNOs for the next 14.0 days since TLE Epoch: 5/3/2019
Index Date Time (GOES-14) GOES-14 Lat,Lon NOAA-20 Lat,Lon Distance(km) Time Diff (sec)
1 05/04/2019 20:08:37 -0.12,-104.41 0.55,-101.31 352.97 80
2 05/06/2019 08:30:24 0.10,-104.38 0.62,-106.58 251.40 80
3 05/07/2019 08:14:19 0.11,-104.38 -0.42,-102.06 265.65 80
4 05/08/2019 20:36:16 -0.09,-104.43 -0.75,-107.36 334.68 80
5 05/09/2019 20:14:50 -0.10,-104.42 0.23,-102.83 181.23 80
6 05/11/2019 08:36:38 0.09,-104.37 0.94,-108.10 425.49 80
7 05/12/2019 08:20:33 0.10,-104.37 -0.10,-103.57 91.49 80
8 05/14/2019 20:21:04 -0.10,-104.42 -0.08,-104.34 9.18 80
9 05/17/2019 08:24:06 0.08,-104.36 0.27,-105.07 81.88 80




NCC Satellite Simultaneous Nadir Overpasses (SNOs) Prediction Service
